Time,TemperatureF,DewpointF,PressureIn,WindDirection,WindDirectionDegrees,WindSpeedMPH,WindSpeedGustMPH,Humidity,HourlyPrecipIn,Conditions,Clouds,dailyrainin,SoftwareType,DateUTC
2013-08-25 00:07:00,79.3,73.4,0.00,WNW,297,0.0,0.0,78,0.00,,,-99.99,Homeseer,2013-08-25 04:07:00,
2013-08-25 00:17:00,79.3,74.0,0.00,North,0,0.0,0.0,80,0.00,,,-99.99,Homeseer,2013-08-25 04:17:00,
2013-08-25 00:27:00,79.7,74.1,0.00,North,0,0.0,0.0,79,0.00,,,-99.99,Homeseer,2013-08-25 04:27:00,
2013-08-25 00:37:00,79.9,74.6,0.00,North,0,0.0,0.0,80,0.00,,,-99.99,Homeseer,2013-08-25 04:37:00,
2013-08-25 00:47:00,80.6,76.1,0.00,ESE,112,0.0,0.0,83,0.00,,,-99.99,Homeseer,2013-08-25 04:47:00,
2013-08-25 00:57:00,81.5,75.5,0.00,South,180,2.5,2.5,78,0.00,,,-99.99,Homeseer,2013-08-25 04:57:00,
2013-08-25 01:05:00,81.7,75.1,0.00,SSE,157,1.6,0.0,76,0.00,,,-99.99,Homeseer,2013-08-25 05:05:00,
2013-08-25 01:15:00,81.7,75.1,0.00,North,0,1.1,0.0,76,0.00,,,-99.99,Homeseer,2013-08-25 05:15:00,
2013-08-25 01:25:00,81.7,74.8,0.00,North,0,0.0,0.0,75,0.00,,,-99.99,Homeseer,2013-08-25 05:25:00,
2013-08-25 01:35:00,81.7,74.1,0.00,South,180,1.6,1.6,73,0.00,,,-99.99,Homeseer,2013-08-25 05:35:00,
2013-08-25 01:45:00,81.9,73.7,0.00,South,180,0.9,0.0,71,0.00,,,-99.99,Homeseer,2013-08-25 05:45:00,
2013-08-25 01:55:00,82.2,74.3,0.00,SSE,157,2.2,6.3,72,0.00,,,-99.99,Homeseer,2013-08-25 05:55:00,
2013-08-25 02:05:00,82.0,74.7,0.00,South,180,0.9,2.7,74,0.00,,,-99.99,Homeseer,2013-08-25 06:05:00,
2013-08-25 02:15:00,82.0,74.7,0.00,South,180,0.0,0.0,74,0.00,,,-99.99,Homeseer,2013-08-25 06:15:00,
2013-08-25 02:25:00,82.0,74.4,0.00,WSW,247,1.1,0.0,73,0.00,,,-99.99,Homeseer,2013-08-25 06:25:00,
2013-08-25 02:35:00,82.2,74.0,0.00,South,180,3.4,3.4,71,0.00,,,-99.99,Homeseer,2013-08-25 06:35:00,
2013-08-25 02:45:00,82.2,73.6,0.00,SW,225,2.7,4.3,70,0.00,,,-99.99,Homeseer,2013-08-25 06:45:00,
2013-08-25 02:55:00,82.2,72.9,0.00,SSE,157,1.3,0.0,68,0.00,,,-99.99,Homeseer,2013-08-25 06:55:00,
2013-08-25 03:05:00,82.0,73.1,0.00,North,0,0.0,0.0,69,0.00,,,-99.99,Homeseer,2013-08-25 07:05:00,
2013-08-25 03:15:00,82.0,73.4,0.00,South,180,0.0,0.0,70,0.00,,,-99.99,Homeseer,2013-08-25 07:15:00,
2013-08-25 03:25:00,82.2,74.0,0.00,South,180,1.1,0.0,71,0.00,,,-99.99,Homeseer,2013-08-25 07:25:00,
2013-08-25 03:35:00,82.2,74.3,0.00,North,0,0.0,0.0,72,0.00,,,-99.99,Homeseer,2013-08-25 07:35:00,
2013-08-25 03:45:00,82.2,73.6,0.00,South,180,0.0,0.0,70,0.00,,,-99.99,Homeseer,2013-08-25 07:45:00,
2013-08-25 03:55:00,82.2,73.3,0.00,South,180,0.0,0.0,69,0.00,,,-99.99,Homeseer,2013-08-25 07:55:00,
2013-08-25 04:05:00,82.2,73.3,0.00,North,0,0.0,0.0,69,0.00,,,-99.99,Homeseer,2013-08-25 08:05:00,
2013-08-25 04:15:00,82.2,73.3,0.00,North,0,0.0,0.0,69,0.00,,,-99.99,Homeseer,2013-08-25 08:15:00,
2013-08-25 04:25:00,82.2,73.3,0.00,SSE,157,0.0,0.0,69,0.00,,,-99.99,Homeseer,2013-08-25 08:25:00,
2013-08-25 04:35:00,82.0,73.4,0.00,WSW,247,0.0,0.0,70,0.00,,,-99.99,Homeseer,2013-08-25 08:35:00,
2013-08-25 04:45:00,81.5,76.7,0.00,North,0,4.0,4.3,82,0.00,,,-99.99,Homeseer,2013-08-25 08:45:00,
2013-08-25 04:55:00,80.8,77.7,0.00,East,90,0.0,0.0,88,0.00,,,-99.99,Homeseer,2013-08-25 08:55:00,
2013-08-25 05:05:00,80.6,78.0,0.00,North,0,2.5,3.4,90,0.00,,,-99.99,Homeseer,2013-08-25 09:05:00,
2013-08-25 05:15:00,80.4,78.1,0.00,North,0,0.0,0.0,91,0.00,,,-99.99,Homeseer,2013-08-25 09:15:00,
2013-08-25 05:25:00,80.6,78.0,0.00,WNW,297,0.0,0.0,90,0.00,,,-99.99,Homeseer,2013-08-25 09:25:00,
2013-08-25 05:35:00,80.4,78.1,0.00,WNW,297,0.0,2.2,91,0.00,,,-99.99,Homeseer,2013-08-25 09:35:00,
2013-08-25 05:45:00,80.6,78.0,0.00,WNW,297,0.9,0.0,90,0.00,,,-99.99,Homeseer,2013-08-25 09:45:00,
2013-08-25 05:55:00,80.4,78.1,0.00,North,0,0.0,0.0,91,0.00,,,-99.99,Homeseer,2013-08-25 09:55:00,
2013-08-25 06:05:00,80.4,78.1,0.00,WNW,297,0.0,0.0,91,0.00,,,-99.99,Homeseer,2013-08-25 10:05:00,
2013-08-25 06:15:00,79.9,78.4,0.00,North,0,3.1,3.1,94,0.00,,,-99.99,Homeseer,2013-08-25 10:15:00,
2013-08-25 06:25:00,79.7,78.2,0.00,WNW,297,2.5,2.5,94,0.00,,,-99.99,Homeseer,2013-08-25 10:25:00,
2013-08-25 06:35:00,79.7,78.2,0.00,WNW,297,0.0,0.0,94,0.00,,,-99.99,Homeseer,2013-08-25 10:35:00,
2013-08-25 06:45:00,79.7,77.9,0.00,North,0,0.0,0.0,93,0.00,,,-99.99,Homeseer,2013-08-25 10:45:00,
2013-08-25 06:55:00,79.3,77.3,0.00,ENE,67,0.0,0.0,92,0.00,,,-99.99,Homeseer,2013-08-25 10:55:00,
2013-08-25 07:05:00,79.0,76.5,0.00,NNE,22,0.0,0.0,90,0.00,,,-99.99,Homeseer,2013-08-25 11:05:00,
2013-08-25 07:15:00,78.6,76.1,0.00,North,0,1.1,0.0,90,0.00,,,-99.99,Homeseer,2013-08-25 11:15:00,
2013-08-25 07:25:00,78.6,75.8,0.00,NE,45,0.0,0.0,89,0.00,,,-99.99,Homeseer,2013-08-25 11:25:00,
2013-08-25 07:35:00,78.3,74.4,0.00,ENE,67,1.3,2.9,85,0.00,,,-99.99,Homeseer,2013-08-25 11:35:00,
2013-08-25 07:45:00,78.4,74.2,0.00,WNW,297,0.0,0.0,84,0.00,,,-99.99,Homeseer,2013-08-25 11:45:00,
2013-08-25 07:55:00,78.4,72.5,0.00,ENE,67,0.0,2.0,78,0.00,,,-99.99,Homeseer,2013-08-25 11:55:00,
2013-08-25 08:05:00,78.6,73.3,0.00,North,0,2.9,2.9,80,0.00,,,-99.99,Homeseer,2013-08-25 12:05:00,
2013-08-25 08:15:00,78.6,73.0,0.00,North,0,2.2,2.2,79,0.00,,,-99.99,Homeseer,2013-08-25 12:15:00,
2013-08-25 08:25:00,79.2,74.2,0.00,North,0,1.3,1.3,81,0.00,,,-99.99,Homeseer,2013-08-25 12:25:00,
2013-08-25 08:35:00,79.7,74.7,0.00,North,0,2.7,2.7,81,0.00,,,-99.99,Homeseer,2013-08-25 12:35:00,
2013-08-25 08:45:00,79.5,73.9,0.00,North,0,5.4,5.4,79,0.00,,,-99.99,Homeseer,2013-08-25 12:45:00,
2013-08-25 08:55:00,79.5,76.4,0.00,North,0,4.0,4.0,88,0.00,,,-99.99,Homeseer,2013-08-25 12:55:00,
2013-08-25 09:05:00,79.3,76.0,0.00,North,0,6.0,6.3,87,0.00,,,-99.99,Homeseer,2013-08-25 13:05:00,
2013-08-25 09:15:00,79.3,75.7,0.00,North,0,3.4,5.4,86,0.00,,,-99.99,Homeseer,2013-08-25 13:15:00,
2013-08-25 09:25:00,79.5,75.0,0.00,North,0,5.4,5.4,83,0.00,,,-99.99,Homeseer,2013-08-25 13:25:00,
2013-08-25 09:35:00,79.5,74.5,0.00,North,0,3.8,3.8,81,0.00,,,-99.99,Homeseer,2013-08-25 13:35:00,
2013-08-25 09:45:00,79.5,74.5,0.00,North,0,2.9,2.9,81,0.00,,,-99.99,Homeseer,2013-08-25 13:45:00,
2013-08-25 09:55:00,79.5,73.9,0.00,ESE,112,2.9,2.9,79,0.00,,,-99.99,Homeseer,2013-08-25 13:55:00,
2013-08-25 10:05:00,79.5,75.3,0.00,East,90,2.0,0.0,84,0.00,,,-99.99,Homeseer,2013-08-25 14:05:00,
2013-08-25 10:15:00,79.5,72.7,0.00,ESE,112,3.4,3.4,75,0.00,,,-99.99,Homeseer,2013-08-25 14:15:00,
2013-08-25 10:25:00,80.4,72.9,0.00,SSE,157,1.3,0.0,73,0.00,,,-99.99,Homeseer,2013-08-25 14:25:00,
2013-08-25 10:35:00,80.8,72.6,0.00,ESE,112,0.0,0.0,71,0.00,,,-99.99,Homeseer,2013-08-25 14:35:00,
2013-08-25 10:45:00,81.0,72.5,0.00,ESE,112,0.0,0.0,70,0.00,,,-99.99,Homeseer,2013-08-25 14:45:00,
2013-08-25 10:55:00,81.3,72.8,0.00,East,90,2.5,2.5,70,0.00,,,-99.99,Homeseer,2013-08-25 14:55:00,
2013-08-25 11:05:00,81.1,72.9,0.00,East,90,0.9,0.0,71,0.00,,,-99.99,Homeseer,2013-08-25 15:05:00,
2013-08-25 11:15:00,80.8,72.9,0.00,ENE,67,2.5,2.5,72,0.00,,,-99.99,Homeseer,2013-08-25 15:15:00,
2013-08-25 11:25:00,80.4,73.2,0.00,East,90,0.0,0.0,74,0.00,,,-99.99,Homeseer,2013-08-25 15:25:00,
2013-08-25 11:35:00,80.4,74.1,0.00,ESE,112,1.3,0.0,77,0.00,,,-99.99,Homeseer,2013-08-25 15:35:00,
2013-08-25 11:45:00,80.6,74.3,0.00,ENE,67,2.0,0.0,77,0.00,,,-99.99,Homeseer,2013-08-25 15:45:00,
2013-08-25 11:55:00,81.3,74.4,0.00,ESE,112,1.1,2.0,75,0.00,,,-99.99,Homeseer,2013-08-25 15:55:00,
2013-08-25 12:05:00,81.3,71.8,0.00,ESE,112,4.5,4.5,67,0.00,,,-99.99,Homeseer,2013-08-25 16:05:00,
2013-08-25 12:15:00,81.7,72.5,0.00,East,90,0.9,2.7,68,0.00,,,-99.99,Homeseer,2013-08-25 16:15:00,
2013-08-25 12:25:00,81.7,71.4,0.00,ESE,112,3.8,3.8,65,0.00,,,-99.99,Homeseer,2013-08-25 16:25:00,
2013-08-25 12:35:00,82.0,72.1,0.00,ENE,67,2.5,2.5,66,0.00,,,-99.99,Homeseer,2013-08-25 16:35:00,
2013-08-25 12:45:00,82.4,72.1,0.00,ESE,112,3.4,3.4,65,0.00,,,-99.99,Homeseer,2013-08-25 16:45:00,
2013-08-25 12:55:00,83.1,72.4,0.00,ESE,112,2.2,6.3,64,0.00,,,-99.99,Homeseer,2013-08-25 16:55:00,
2013-08-25 13:05:00,83.5,71.6,0.00,North,0,4.0,4.0,61,0.00,,,-99.99,Homeseer,2013-08-25 17:05:00,
2013-08-25 13:15:00,83.8,72.7,0.00,East,90,6.7,6.7,63,0.00,,,-99.99,Homeseer,2013-08-25 17:15:00,
2013-08-25 13:25:00,83.7,72.2,0.00,ESE,112,4.5,4.7,62,0.00,,,-99.99,Homeseer,2013-08-25 17:25:00,
2013-08-25 13:35:00,84.2,71.1,0.00,SE,135,4.9,4.9,58,0.00,,,-99.99,Homeseer,2013-08-25 17:35:00,
2013-08-25 13:45:00,84.7,71.2,0.00,SSE,157,6.7,6.9,57,0.00,,,-99.99,Homeseer,2013-08-25 17:45:00,
2013-08-25 13:55:00,84.7,71.6,0.00,ESE,112,4.0,4.0,58,0.00,,,-99.99,Homeseer,2013-08-25 17:55:00,
2013-08-25 14:05:00,84.2,71.1,0.00,ESE,112,4.7,5.4,58,0.00,,,-99.99,Homeseer,2013-08-25 18:05:00,
2013-08-25 14:15:00,84.6,69.8,0.00,SSE,157,2.5,5.4,54,0.00,,,-99.99,Homeseer,2013-08-25 18:15:00,
2013-08-25 14:25:00,84.4,70.9,0.00,ESE,112,3.4,3.4,57,0.00,,,-99.99,Homeseer,2013-08-25 18:25:00,
2013-08-25 14:35:00,84.6,71.1,0.00,ESE,112,3.1,3.1,57,0.00,,,-99.99,Homeseer,2013-08-25 18:35:00,
2013-08-25 14:45:00,84.6,70.7,0.00,SSE,157,3.1,4.7,56,0.00,,,-99.99,Homeseer,2013-08-25 18:45:00,
2013-08-25 14:55:00,85.1,71.5,0.00,South,180,2.5,2.7,57,0.00,,,-99.99,Homeseer,2013-08-25 18:55:00,
2013-08-25 15:05:00,85.5,71.5,0.00,ESE,112,3.4,4.9,56,0.00,,,-99.99,Homeseer,2013-08-25 19:05:00,
2013-08-25 15:15:00,85.5,71.1,0.00,East,90,3.1,4.3,55,0.00,,,-99.99,Homeseer,2013-08-25 19:15:00,
2013-08-25 15:25:00,85.1,70.3,0.00,ESE,112,2.9,6.0,54,0.00,,,-99.99,Homeseer,2013-08-25 19:25:00,
2013-08-25 15:35:00,85.8,70.9,0.00,ESE,112,2.0,4.5,54,0.00,,,-99.99,Homeseer,2013-08-25 19:35:00,
2013-08-25 15:45:00,85.6,70.8,0.00,ESE,112,3.4,3.4,54,0.00,,,-99.99,Homeseer,2013-08-25 19:45:00,
2013-08-25 15:55:00,85.6,69.0,0.00,SE,135,2.9,4.9,50,0.00,,,-99.99,Homeseer,2013-08-25 19:55:00,
2013-08-25 16:05:00,85.5,70.2,0.00,SE,135,2.9,3.1,53,0.00,,,-99.99,Homeseer,2013-08-25 20:05:00,
2013-08-25 16:15:00,84.6,68.5,0.00,SE,135,4.0,4.0,51,0.00,,,-99.99,Homeseer,2013-08-25 20:15:00,
2013-08-25 16:25:00,84.6,69.0,0.00,SSE,157,2.7,3.1,52,0.00,,,-99.99,Homeseer,2013-08-25 20:25:00,
2013-08-25 16:35:00,84.9,69.3,0.00,ESE,112,2.2,0.0,52,0.00,,,-99.99,Homeseer,2013-08-25 20:35:00,
2013-08-25 16:45:00,84.9,68.4,0.00,South,180,3.4,3.4,50,0.00,,,-99.99,Homeseer,2013-08-25 20:45:00,
2013-08-25 16:55:00,85.3,69.6,0.00,ESE,112,2.9,6.0,52,0.00,,,-99.99,Homeseer,2013-08-25 20:55:00,
2013-08-25 17:05:00,85.1,70.3,0.00,SSE,157,3.8,3.8,54,0.00,,,-99.99,Homeseer,2013-08-25 21:05:00,
2013-08-25 17:15:00,83.5,72.8,0.00,East,90,2.9,7.8,64,0.00,,,-99.99,Homeseer,2013-08-25 21:15:00,
2013-08-25 17:25:00,83.8,71.1,0.00,SE,135,5.4,5.4,59,0.00,,,-99.99,Homeseer,2013-08-25 21:25:00,
2013-08-25 17:35:00,84.4,67.0,0.00,ESE,112,3.8,3.8,48,0.00,,,-99.99,Homeseer,2013-08-25 21:35:00,
2013-08-25 17:45:00,84.4,68.8,0.00,SSE,157,3.8,3.8,52,0.00,,,-99.99,Homeseer,2013-08-25 21:45:00,
2013-08-25 17:55:00,84.0,68.9,0.00,ESE,112,4.9,6.3,53,0.00,,,-99.99,Homeseer,2013-08-25 21:55:00,
2013-08-25 18:05:00,84.0,68.4,0.00,East,90,2.2,4.3,52,0.00,,,-99.99,Homeseer,2013-08-25 22:05:00,
2013-08-25 18:15:00,84.0,68.0,0.00,ESE,112,2.0,2.5,51,0.00,,,-99.99,Homeseer,2013-08-25 22:15:00,
2013-08-25 18:25:00,83.7,68.2,0.00,ESE,112,3.4,3.4,52,0.00,,,-99.99,Homeseer,2013-08-25 22:25:00,
2013-08-25 18:35:00,83.7,69.0,0.00,ESE,112,3.4,3.4,54,0.00,,,-99.99,Homeseer,2013-08-25 22:35:00,
2013-08-25 18:45:00,83.5,69.3,0.00,East,90,2.5,2.5,55,0.00,,,-99.99,Homeseer,2013-08-25 22:45:00,
2013-08-25 18:55:00,83.1,68.9,0.00,East,90,0.9,2.9,55,0.00,,,-99.99,Homeseer,2013-08-25 22:55:00,
2013-08-25 19:05:00,83.1,68.9,0.00,ESE,112,1.3,0.0,55,0.00,,,-99.99,Homeseer,2013-08-25 23:05:00,
2013-08-25 19:15:00,82.9,69.9,0.00,SSE,157,1.1,0.0,58,0.00,,,-99.99,Homeseer,2013-08-25 23:15:00,
2013-08-25 19:25:00,82.9,69.9,0.00,East,90,2.7,0.0,58,0.00,,,-99.99,Homeseer,2013-08-25 23:25:00,
2013-08-25 19:35:00,82.8,69.0,0.00,ESE,112,2.5,2.5,56,0.00,,,-99.99,Homeseer,2013-08-25 23:35:00,
2013-08-25 19:45:00,82.8,70.2,0.00,SSE,157,2.9,0.0,59,0.00,,,-99.99,Homeseer,2013-08-25 23:45:00,
2013-08-25 19:55:00,82.8,70.2,0.00,SE,135,0.9,0.0,59,0.00,,,-99.99,Homeseer,2013-08-25 23:55:00,
2013-08-25 20:05:00,82.6,70.4,0.00,ESE,112,2.9,2.9,60,0.00,,,-99.99,Homeseer,2013-08-26 00:05:00,
2013-08-25 20:15:00,82.6,70.0,0.00,SSE,157,1.1,2.7,59,0.00,,,-99.99,Homeseer,2013-08-26 00:15:00,
2013-08-25 20:25:00,82.6,69.2,0.00,SE,135,2.5,0.0,57,0.00,,,-99.99,Homeseer,2013-08-26 00:25:00,
2013-08-25 20:35:00,82.6,70.0,0.00,ESE,112,1.3,3.4,59,0.00,,,-99.99,Homeseer,2013-08-26 00:35:00,
2013-08-25 20:45:00,82.6,70.4,0.00,ESE,112,2.0,0.0,60,0.00,,,-99.99,Homeseer,2013-08-26 00:45:00,
2013-08-25 20:55:00,82.4,70.6,0.00,ENE,67,0.9,2.2,61,0.00,,,-99.99,Homeseer,2013-08-26 00:55:00,
2013-08-25 21:05:00,82.4,70.2,0.00,East,90,2.7,3.6,60,0.00,,,-99.99,Homeseer,2013-08-26 01:05:00,
2013-08-25 21:15:00,82.4,70.2,0.00,ESE,112,3.4,3.4,60,0.00,,,-99.99,Homeseer,2013-08-26 01:15:00,
2013-08-25 21:25:00,82.4,70.6,0.00,SE,135,2.0,2.2,61,0.00,,,-99.99,Homeseer,2013-08-26 01:25:00,
2013-08-25 21:35:00,82.4,70.2,0.00,ESE,112,1.1,4.0,60,0.00,,,-99.99,Homeseer,2013-08-26 01:35:00,
2013-08-25 21:45:00,82.4,69.5,0.00,ESE,112,3.4,0.0,58,0.00,,,-99.99,Homeseer,2013-08-26 01:45:00,
2013-08-25 21:55:00,82.4,69.5,0.00,East,90,2.5,2.5,58,0.00,,,-99.99,Homeseer,2013-08-26 01:55:00,
2013-08-25 22:05:00,82.4,69.9,0.00,SE,135,3.4,4.9,59,0.00,,,-99.99,Homeseer,2013-08-26 02:05:00,
2013-08-25 22:15:00,82.4,70.6,0.00,East,90,2.5,0.0,61,0.00,,,-99.99,Homeseer,2013-08-26 02:15:00,
2013-08-25 22:25:00,82.4,71.0,0.00,ESE,112,0.0,1.6,62,0.00,,,-99.99,Homeseer,2013-08-26 02:25:00,
2013-08-25 22:35:00,82.4,70.6,0.00,ESE,112,3.8,3.8,61,0.00,,,-99.99,Homeseer,2013-08-26 02:35:00,
2013-08-25 22:45:00,82.4,71.7,0.00,East,90,0.9,2.9,64,0.00,,,-99.99,Homeseer,2013-08-26 02:45:00,
2013-08-25 22:55:00,82.4,72.1,0.00,ESE,112,2.2,3.1,65,0.00,,,-99.99,Homeseer,2013-08-26 02:55:00,
2013-08-25 23:05:00,82.4,72.4,0.00,ESE,112,2.0,2.7,66,0.00,,,-99.99,Homeseer,2013-08-26 03:05:00,
2013-08-25 23:15:00,82.4,72.1,0.00,East,90,1.6,2.9,65,0.00,,,-99.99,Homeseer,2013-08-26 03:15:00,
2013-08-25 23:25:00,82.4,71.7,0.00,ESE,112,2.7,2.7,64,0.00,,,-99.99,Homeseer,2013-08-26 03:25:00,
2013-08-25 23:35:00,82.4,71.7,0.00,ESE,112,5.4,5.4,64,0.00,,,-99.99,Homeseer,2013-08-26 03:35:00,
2013-08-25 23:45:00,82.6,71.2,0.00,SE,135,3.6,3.6,62,0.00,,,-99.99,Homeseer,2013-08-26 03:45:00,
2013-08-25 23:55:00,82.6,71.2,0.00,SSE,157,4.0,4.0,62,0.00,,,-99.99,Homeseer,2013-08-26 03:55:00,